User: anonymous   Login
Location: Redding Observatory
(29.1111°N, 81.3442°W)
Time: 07:13:57
(UTC-04:00)
Language:

ISS - Orbit

View from above orbital plane
View from above orbital plane
View from above satellite
View from above satellite

Ground track
Ground track

The orbit data is extracted from the following two-line orbital elements,

1 25544U 98067A   22141.64762985  .00011833  00000-0  21815-3 0  9993
2 25544  51.6435 108.0252 0005208 138.9273  30.7031 15.49577322341065
Epoch (UTC): 21 May 2022 15:32:35
Eccentricity: 0.0005208
inclination: 51.6435°
perigee height: 414 km
apogee height: 421 km
right ascension of ascending node: 108.0252°
argument of perigee: 138.9273°
revolutions per day: 15.49577322
mean anomaly at epoch: 30.7031°
orbit number at epoch: 34106

The dashed part of the orbit path shows where the satellite is in the earth's shadow,  

DLR